DEKDY EDDF-EDUD

Flight info

Callsign DEKDY
Flight time N/A
Altitude
Route
Aircraft I85

Departure

Time 2026-05-05 19:46
Airport Frankfurt Main Airport (EDDF)

Arrival

Time N/A
Airport EDUD
Time Latitude Longitude Altitude Speed Heading
2026-05-05 19:43 49.84334 8.85109 503 ft 0 kts 160°
2026-05-05 19:45 49.84314 8.85145 502 ft 15 kts 110°
2026-05-05 19:46 49.84118 8.85133 549 ft 58 kts 196°
2026-05-05 19:46 49.83668 8.84963 894 ft 72 kts 192°
2026-05-05 19:46 49.83164 8.84836 1288 ft 77 kts 190°
2026-05-05 19:46 49.82568 8.84677 1535 ft 90 kts 208°
2026-05-05 19:47 49.82306 8.84240 1817 ft 86 kts 245°
2026-05-05 19:47 49.82486 8.83264 2331 ft 86 kts 351°
2026-05-05 19:47 49.82826 8.83878 2687 ft 88 kts 97°
2026-05-05 19:47 49.82589 8.84574 3135 ft 78 kts 185°
2026-05-05 19:48 49.82540 8.83951 3486 ft 82 kts 334°
2026-05-05 19:48 49.82875 8.83613 3479 ft 75 kts 294°
2026-05-05 19:48 49.82470 8.83298 3342 ft 105 kts 154°
2026-05-05 19:48 49.82229 8.84265 3362 ft 93 kts 94°
2026-05-05 19:49 49.82476 8.85075 3390 ft 84 kts 35°
2026-05-05 19:49 49.83056 8.85242 3418 ft 89 kts 346°
2026-05-05 19:49 49.83538 8.84710 3463 ft 90 kts 299°
2026-05-05 19:49 49.83629 8.83737 3432 ft 93 kts 259°
2026-05-05 19:50 49.83153 8.83216 3466 ft 93 kts 174°
2026-05-05 19:50 49.82697 8.83866 3408 ft 93 kts 109°
2026-05-05 19:50 49.82833 8.84696 3357 ft 88 kts 39°
2026-05-05 19:50 49.83413 8.84828 3372 ft 89 kts 338°
2026-05-05 19:51 49.83823 8.84189 3434 ft 85 kts 291°
2026-05-05 19:51 49.83838 8.83288 3483 ft 85 kts 253°
2026-05-05 19:51 49.83514 8.82542 3626 ft 83 kts 237°
2026-05-05 19:51 49.83300 8.81692 3919 ft 91 kts 251°
2026-05-05 19:52 49.83043 8.80942 3935 ft 70 kts 217°
2026-05-05 19:52 49.82735 8.80455 3870 ft 77 kts 265°
2026-05-05 19:52 49.83237 8.80146 3925 ft 99 kts 17°
2026-05-05 19:52 49.83817 8.80667 4108 ft 100 kts 73°
2026-05-05 19:53 49.83396 8.80773 4256 ft 99 kts 248°
2026-05-05 19:53 49.83411 8.79830 4472 ft 98 kts 318°
2026-05-05 19:53 49.84027 8.79636 4789 ft 90 kts
2026-05-05 19:53 49.84561 8.79413 5219 ft 80 kts 328°
2026-05-05 19:54 49.85079 8.78913 5485 ft 87 kts 326°
2026-05-05 19:54 49.85606 8.78388 5750 ft 92 kts 326°
2026-05-05 19:54 49.86111 8.77831 6093 ft 86 kts 322°
2026-05-05 19:54 49.86589 8.77266 6425 ft 87 kts 321°
2026-05-05 19:55 49.87049 8.76701 6786 ft 83 kts 321°
2026-05-05 19:55 49.87522 8.76115 7040 ft 92 kts 320°
2026-05-05 19:55 49.88022 8.75481 7291 ft 92 kts 319°
2026-05-05 19:55 49.88503 8.74845 7546 ft 93 kts 318°
2026-05-05 19:56 49.88988 8.74187 7804 ft 92 kts 319°
2026-05-05 19:56 49.89500 8.73584 7994 ft 100 kts 324°
2026-05-05 19:56 49.90089 8.72936 8039 ft 105 kts 324°
2026-05-05 19:56 49.90695 8.72285 8075 ft 108 kts 325°
2026-05-05 19:57 49.91325 8.71624 8048 ft 110 kts 325°
2026-05-05 19:57 49.91952 8.70956 8060 ft 109 kts 324°
2026-05-05 19:57 49.92564 8.70266 8043 ft 111 kts 322°
2026-05-05 19:57 49.93166 8.69540 8041 ft 109 kts 321°
2026-05-05 19:58 49.93771 8.68811 8017 ft 110 kts 322°
2026-05-05 19:58 49.94380 8.68099 8007 ft 110 kts 322°
2026-05-05 19:58 49.94985 8.67390 8004 ft 110 kts 322°
2026-05-05 19:58 49.95583 8.66659 8020 ft 108 kts 320°
2026-05-05 19:59 49.96150 8.65916 8024 ft 108 kts 318°
2026-05-05 19:59 49.96712 8.65134 8037 ft 108 kts 316°
2026-05-05 19:59 49.97255 8.64321 8042 ft 108 kts 314°
2026-05-05 19:59 49.97811 8.63532 8042 ft 108 kts 319°
2026-05-05 20:00 49.98395 8.62789 8049 ft 108 kts 320°
2026-05-05 20:00 49.98978 8.62046 8060 ft 108 kts 320°
2026-05-05 20:00 49.99558 8.61297 8069 ft 108 kts 319°